Sand Point, AK

10:01 AM AKDT on July 24, 2017 (GMT -0800)
Sand Point

Weather History for PASD - March, 2014

Change the Weather History Date:

Thursday, March 27, 2014

  Actual Average Record
Temperature  
Mean Temperature 37 °F -  
Max Temperature 41 °F 33 °F 45 °F (1981)
Min Temperature 33 °F 26 °F 14 °F (2008)
Degree Days  
Heating Degree Days 28    
Moisture  
Dew Point 31 °F    
Average Humidity 78    
Maximum Humidity 87    
Minimum Humidity 61    
Precipitation  
Precipitation 0.00 in - - ()
Sea Level Pressure  
Sea Level Pressure 30.05 in    
Wind  
Wind Speed 9 mph (NW)    
Max Wind Speed 17 mph    
Max Gust Speed 16 mph    
Visibility 10 miles    
Events      
Averages and records for this station are not official NWS values.
T = Trace of Precipitation, MM = Missing Value Source: NWS Daily Summary

Daily Weather History Graph

Daily Weather History Graph

Search for Another Location

Airport or City:

Trip Planner

Search our weather history database for the weather conditions in past years. The results will help you decide how hot, cold, wet, or windy it might be!

Date:

Astronomy

Mar. 27, 2014 Rise Set
Actual Time 8:25 AM AKDT 9:10 PM AKDT
Civil Twilight 7:48 AM AKDT 9:47 PM AKDT
Nautical Twilight 7:04 AM AKDT 10:31 PM AKDT
Astronomical Twilight 6:16 AM AKDT 11:20 PM AKDT
Moon 6:56 AM AKDT (3/27) 5:44 PM AKDT (3/27)
Length of Visible Light 13h 58m
Length of Day
12h 44m
Waning Crescent, 12% of the Moon is Illuminated
Mar 27
Waning Crescent
Mar 30
New
Apr 7
First Quarter
Apr 14
Full
Apr 21
Last Quarter

Hourly Weather History & Observations

Time (AKDT) Temp. Windchill Dew Point Humidity Pressure Visibility Wind Dir Wind Speed Gust Speed Precip Events Conditions
12:16 AM 35.6 °F 29.9 °F 30.2 °F 81% 30.01 in 10.0 mi NNW 6.9 mph - N/A   Overcast
12:36 AM 35.6 °F 30.7 °F 32.0 °F 87% 30.02 in 10.0 mi NNW 5.8 mph - N/A   Overcast
12:56 AM 35.6 °F 29.9 °F 32.0 °F 87% 30.02 in 10.0 mi NNW 6.9 mph - N/A   Scattered Clouds
1:16 AM 35.6 °F 29.9 °F 32.0 °F 87% 30.02 in 10.0 mi NNW 6.9 mph - N/A   Clear
1:36 AM 35.6 °F 29.9 °F 32.0 °F 87% 30.02 in 10.0 mi NW 6.9 mph - N/A   Clear
1:56 AM 35.6 °F 29.9 °F 32.0 °F 87% 30.02 in 10.0 mi NNW 6.9 mph - N/A   Clear
2:16 AM 35.6 °F 28.0 °F 30.2 °F 81% 30.03 in 10.0 mi NNW 10.4 mph - N/A   Clear
2:36 AM 35.6 °F 29.2 °F 30.2 °F 81% 30.03 in 10.0 mi NNW 8.1 mph - N/A   Scattered Clouds
2:56 AM 35.6 °F 28.6 °F 30.2 °F 81% 30.03 in 10.0 mi NNW 9.2 mph - N/A   Overcast
3:16 AM 35.6 °F 27.5 °F 32.0 °F 87% 30.03 in 10.0 mi NNW 11.5 mph - N/A   Mostly Cloudy
3:36 AM 35.6 °F 26.6 °F 32.0 °F 87% 30.04 in 10.0 mi NNW 13.8 mph - N/A   Mostly Cloudy
3:56 AM 35.6 °F 27.1 °F 32.0 °F 87% 30.04 in 10.0 mi NNW 12.7 mph - N/A   Partly Cloudy
4:16 AM 35.6 °F 26.2 °F 32.0 °F 87% 30.04 in 10.0 mi NNW 15.0 mph - N/A   Clear
4:36 AM 35.6 °F 26.6 °F 30.2 °F 81% 30.04 in 10.0 mi NW 13.8 mph - N/A   Clear
4:56 AM 33.8 °F 23.9 °F 30.2 °F 87% 30.04 in 10.0 mi NW 15.0 mph - N/A   Clear
5:16 AM 33.8 °F 24.3 °F 30.2 °F 87% 30.05 in 10.0 mi NW 13.8 mph - N/A   Clear
5:36 AM 35.6 °F 26.6 °F 30.2 °F 81% 30.05 in 10.0 mi NNW 13.8 mph - N/A   Clear
5:56 AM 33.8 °F 23.5 °F 30.2 °F 87% 30.05 in 10.0 mi NNW 16.1 mph - N/A   Clear
6:16 AM 33.8 °F 23.5 °F 28.4 °F 81% 30.05 in 10.0 mi NNW 16.1 mph - N/A   Clear
6:36 AM 33.8 °F 23.9 °F 28.4 °F 81% 30.05 in 10.0 mi NNW 15.0 mph - N/A   Clear
6:56 AM 33.8 °F 23.2 °F 28.4 °F 81% 30.05 in 10.0 mi North 17.3 mph - N/A   Scattered Clouds
7:16 AM 33.8 °F 23.5 °F 28.4 °F 81% 30.06 in 10.0 mi NNW 16.1 mph - N/A   Scattered Clouds
7:36 AM 35.6 °F 27.5 °F 28.4 °F 75% 30.07 in 10.0 mi NNW 11.5 mph - N/A   Scattered Clouds
7:56 AM 35.6 °F 28.0 °F 28.4 °F 75% 30.07 in 10.0 mi NNW 10.4 mph - N/A   Scattered Clouds
8:16 AM 33.8 °F 30.8 °F 28.4 °F 81% 30.08 in 10.0 mi WNW 3.5 mph - N/A   Scattered Clouds
8:36 AM 33.8 °F 28.6 °F 28.4 °F 81% 30.08 in 10.0 mi NNW 5.8 mph - N/A   Scattered Clouds
8:56 AM 35.6 °F 32.8 °F 28.4 °F 75% 30.08 in 10.0 mi NW 3.5 mph - N/A   Mostly Cloudy
9:16 AM 35.6 °F 29.9 °F 28.4 °F 75% 30.09 in 10.0 mi NW 6.9 mph - N/A   Mostly Cloudy
9:36 AM 35.6 °F 30.7 °F 28.4 °F 75% 30.09 in 10.0 mi WNW 5.8 mph - N/A   Mostly Cloudy
9:56 AM 35.6 °F 30.7 °F 28.4 °F 75% 30.09 in 10.0 mi North 5.8 mph - N/A   Mostly Cloudy
10:16 AM 35.6 °F 28.6 °F 28.4 °F 75% 30.09 in 10.0 mi NNW 9.2 mph - N/A   Mostly Cloudy
10:36 AM 35.6 °F 26.2 °F 28.4 °F 75% 30.09 in 10.0 mi NNW 15.0 mph - N/A   Mostly Cloudy
10:56 AM 35.6 °F 28.0 °F 30.2 °F 81% 30.09 in 10.0 mi NW 10.4 mph - N/A   Mostly Cloudy
11:16 AM 37.4 °F 30.3 °F 28.4 °F 70% 30.09 in 10.0 mi NW 10.4 mph - N/A   Scattered Clouds
11:36 AM 37.4 °F 30.8 °F 28.4 °F 70% 30.09 in 10.0 mi NNW 9.2 mph - N/A   Scattered Clouds
11:56 AM 37.4 °F 29.3 °F 28.4 °F 70% 30.09 in 10.0 mi NNW 12.7 mph 16.1 mph N/A   Scattered Clouds
12:16 PM 37.4 °F 29.3 °F 28.4 °F 70% 30.09 in 10.0 mi North 12.7 mph - N/A   Scattered Clouds
12:36 PM 37.4 °F 28.9 °F 30.2 °F 75% 30.09 in 10.0 mi NNW 13.8 mph - N/A   Scattered Clouds
12:56 PM 37.4 °F 29.8 °F 30.2 °F 75% 30.09 in 10.0 mi NW 11.5 mph - N/A   Mostly Cloudy
1:16 PM 39.2 °F 33.0 °F 28.4 °F 65% 30.09 in 10.0 mi NW 9.2 mph - N/A   Mostly Cloudy
1:36 PM 39.2 °F 33.6 °F 28.4 °F 65% 30.09 in 10.0 mi NNW 8.1 mph - N/A   Mostly Cloudy
1:56 PM 39.2 °F 33.0 °F 28.4 °F 65% 30.08 in 10.0 mi NW 9.2 mph - N/A   Mostly Cloudy
2:16 PM 39.2 °F 32.5 °F 26.6 °F 61% 30.08 in 10.0 mi NNW 10.4 mph - N/A   Mostly Cloudy
2:36 PM 39.2 °F 32.0 °F 28.4 °F 65% 30.08 in 10.0 mi NNW 11.5 mph - N/A   Mostly Cloudy
2:56 PM 41.0 °F 33.9 °F 28.4 °F 61% 30.07 in 10.0 mi NNW 12.7 mph 16.1 mph N/A   Mostly Cloudy
3:16 PM 39.2 °F 33.0 °F 28.4 °F 65% 30.07 in 10.0 mi NNW 9.2 mph - N/A   Mostly Cloudy
3:36 PM 41.0 °F 34.7 °F 28.4 °F 61% 30.06 in 10.0 mi NNW 10.4 mph - N/A   Mostly Cloudy
3:56 PM 41.0 °F 34.7 °F 30.2 °F 65% 30.06 in 10.0 mi WNW 10.4 mph - N/A   Mostly Cloudy
4:16 PM 41.0 °F 34.7 °F 30.2 °F 65% 30.06 in 10.0 mi WNW 10.4 mph - N/A   Mostly Cloudy
4:36 PM 41.0 °F 33.9 °F 30.2 °F 65% 30.06 in 10.0 mi West 12.7 mph - N/A   Mostly Cloudy
4:56 PM 41.0 °F 33.9 °F 30.2 °F 65% 30.05 in 10.0 mi West 12.7 mph - N/A   Mostly Cloudy
5:16 PM 41.0 °F 34.7 °F 30.2 °F 65% 30.05 in 10.0 mi WNW 10.4 mph - N/A   Mostly Cloudy
5:36 PM 39.2 °F 32.5 °F 30.2 °F 70% 30.05 in 10.0 mi West 10.4 mph - N/A   Mostly Cloudy
5:56 PM 39.2 °F 32.5 °F 30.2 °F 70% 30.04 in 10.0 mi West 10.4 mph - N/A   Overcast
6:16 PM 39.2 °F 31.6 °F 32.0 °F 75% 30.04 in 10.0 mi WNW 12.7 mph - N/A   Overcast
6:36 PM 39.2 °F 33.0 °F 33.8 °F 81% 30.04 in 10.0 mi WNW 9.2 mph - N/A   Overcast
6:56 PM 39.2 °F 32.5 °F 33.8 °F 81% 30.04 in 10.0 mi WNW 10.4 mph - N/A   Mostly Cloudy
7:16 PM 39.2 °F 32.5 °F 33.8 °F 81% 30.03 in 10.0 mi WNW 10.4 mph - N/A   Mostly Cloudy
7:36 PM 39.2 °F 33.0 °F 33.8 °F 81% 30.03 in 10.0 mi WNW 9.2 mph - N/A   Mostly Cloudy
7:56 PM 39.2 °F 33.0 °F 33.8 °F 81% 30.03 in 10.0 mi WNW 9.2 mph - N/A   Mostly Cloudy
8:16 PM 39.2 °F 33.6 °F 33.8 °F 81% 30.03 in 10.0 mi NW 8.1 mph - N/A   Overcast
8:36 PM 39.2 °F 34.2 °F 33.8 °F 81% 30.03 in 10.0 mi NNW 6.9 mph - N/A   Overcast
8:56 PM 37.4 °F 32.1 °F 33.8 °F 87% 30.03 in 10.0 mi NW 6.9 mph - N/A   Overcast
9:16 PM 37.4 °F 32.1 °F 33.8 °F 87% 30.03 in 10.0 mi WNW 6.9 mph - N/A   Overcast
9:36 PM 37.4 °F 32.1 °F 33.8 °F 87% 30.03 in 10.0 mi WNW 6.9 mph - N/A   Overcast
9:56 PM 37.4 °F 32.1 °F 33.8 °F 87% 30.02 in 10.0 mi West 6.9 mph - N/A   Overcast
10:16 PM 37.4 °F 31.4 °F 33.8 °F 87% 30.02 in 10.0 mi WNW 8.1 mph - N/A   Overcast
10:36 PM 37.4 °F 31.4 °F 33.8 °F 87% 30.01 in 10.0 mi West 8.1 mph - N/A   Overcast
10:56 PM 37.4 °F 32.8 °F 32.0 °F 81% 30.01 in 10.0 mi WNW 5.8 mph - N/A   Mostly Cloudy
11:16 PM 37.4 °F 32.8 °F 32.0 °F 81% 30.00 in 10.0 mi NW 5.8 mph - N/A   Overcast
11:36 PM 37.4 °F - 32.0 °F 81% 30.00 in 10.0 mi Calm Calm - N/A   Overcast
11:56 PM 37.4 °F - 32.0 °F 81% 30.00 in 10.0 mi Calm Calm - N/A   Overcast